Home   Weather   Kitchener   Past weeks

Flag for Canada Past Weather in Kitchener, Ontario, Canada — Yesterday and Last 2 Weeks

Now
43 °F

Fog.


Feels Like: 41 °F
Forecast: 38 / 53 °F
Wind: 3 mph from East

Location: Waterloo Well

Current Time: Feb 22, 2017 at 11:04:19 am

Latest Report: Feb 22, 2017 at 10:02 am


Visibility: 0 mi

Pressure: 29.89 "Hg

Humidity: 93%

Dew Point: 41 °F

Location of KitchenerLocation

Past Weather in Kitchener — Graph

°F

Kitchener Temperature Yesterday

Maximum temperature yesterday: 46 °F (at 1:00 pm)
Minimum temperature yesterday: 28 °F (at 7:00 am)
Average temperature yesterday: 39 °F

High & Low Weather Summary for the Past Weeks

 TemperatureHumidityPressure
High54 °F (Feb 18, 4:00 pm)100% (Feb 7, 1:31 pm)30.38 "Hg (Feb 7, 1:31 pm)
Low9 °F (Feb 17, 4:00 am)46% (Feb 20, 2:00 pm)29.24 "Hg (Feb 7, 8:58 pm)
Average28 °F81%29.85 "Hg
* Reported Feb 7 9:21 am — Feb 22 9:54 am, Kitchener, Weather by CustomWeather, © 2017

Note: Actual official high and low records may vary slightly from our data, if they occured in-between our weather recording intervals... More about our weather records

Advertising

Kitchener Weather History for the Previous 24 Hours

Scroll right to see more
 ConditionsComfort  
Time TempWeatherWind HumidityBarometerVisibility
9:54 am
Wed, Feb 22
43 °FFog.2 mph93%29.89 "Hg0 mi
9:00 am41 °FFog.6 mph100%29.89 "Hg0 mi
8:00 am39 °FFog.2 mph93%29.91 "Hg0 mi
7:00 am39 °FFog.2 mph93%29.92 "Hg0 mi
6:00 am39 °FFog.3 mph100%29.92 "Hg0 mi
5:00 am39 °FFog.2 mph100%29.91 "Hg0 mi
4:45 am39 °FFog.No wind100%29.91 "Hg0 mi
4:00 am39 °FFog.3 mph93%29.91 "Hg0 mi
3:00 am39 °FFog.No wind100%29.92 "Hg0 mi
2:00 am39 °FFog.5 mph93%29.93 "Hg0 mi
1:00 am39 °FFog.2 mph100%29.94 "Hg0 mi
12:38 am39 °FFog.No wind100%29.93 "Hg0 mi
12:00 am39 °FFog.3 mph100%29.94 "Hg1 mi
11:26 pm
Tue, Feb 21
39 °FFog.2 mph93%29.95 "Hg1 mi
11:02 pm39 °FLight rain. Fog.2 mph100%29.95 "Hg1 mi
10:44 pm39 °FFog.3 mph100%29.96 "Hg2 mi
10:18 pm41 °FFog.No wind93%29.97 "Hg5 mi
10:09 pm41 °FFog.No wind93%29.97 "Hg6 mi
9:29 pm41 °FFog.No wind93%29.98 "Hg5 mi
9:00 pm41 °FFog.2 mph93%29.98 "Hg5 mi
8:59 pm41 °FFog.No wind93%29.98 "Hg5 mi
8:00 pm41 °FFog.No wind93%29.97 "Hg6 mi
7:00 pm41 °FOvercast.No wind93%29.97 "Hg9 mi
6:00 pm43 °FOvercast.2 mph93%29.95 "Hg9 mi
5:00 pm45 °FMostly cloudy.5 mph81%29.94 "Hg9 mi
4:00 pm43 °FMore clouds than sun.5 mph87%29.93 "Hg9 mi
3:57 pm43 °FOvercast.3 mph87%29.93 "Hg9 mi
3:00 pm43 °FLight rain. More clouds than sun.3 mph87%29.93 "Hg9 mi
2:06 pm43 °FLight rain. Mostly cloudy.No wind76%29.94 "Hg6 mi
1:47 pm45 °FLight rain. Overcast.6 mph61%29.95 "Hg9 mi
1:30 pm45 °FLight rain. Overcast.6 mph61%29.96 "Hg9 mi
1:00 pm46 °FPartly sunny.5 mph53%29.96 "Hg9 mi
12:00 pm45 °FPartly sunny.6 mph57%29.98 "Hg9 mi
11:00 am41 °FBroken clouds.5 mph61%30.00 "Hg9 mi
Weather by CustomWeather, © 2017

See weather overviewHow to use our weather pages